Search for airport 
image banner adimage banner adimage banner ad
image banner ad

10PN - One Meridian Plaza

Located in Philadelphia, United States

ICAO - 10PN, IATA -

Data provided by Airmate  

General information

Coordinates: N39°55'50" W75°14'39"
Elevation is 560 feet MSL.
Magnetic variation is -11° East
View others Airports in Pennsylvania

Operational data

Special qualification required
Current time UTC:
Current local time:
Weather at : KPHL - Philadelphia Intl ( 7 km )
METAR: KPHL 132054Z 18007KT 10SM BKN036 OVC050 25/17 A2988 RMK AO2 SLP118 T02500172 57009 $
TAF: KPHL 132102Z 1321/1424 18007KT P6SM BKN035 OVC050 FM140600 19006KT P6SM -SHRA OVC025 FM140900 19006KT 4SM -SHRA BR OVC015 FM141300 20006KT P6SM BKN010 FM142000 22007KT P6SM BKN035
View NOTAMs / SUP AIP / TFR affecting this airport [VIEW]
Communications frequencies: [VIEW]

Runways:

Airport contact information

Address: Philadelphia United States

Satellite view of 10PN